Location: Al Mulaqqa?ah
(24.1833°N, 32.8833°E)
Time: 20:11:41
(UTC+00:00)

CZ-4B R/B - Pass Details

Date: 26 September 2021
Orbit: 383 x 447 km, 97.6° (Epoch: 25 October)

Event Time Altitude Azimuth Distance (km) Brightness Sun altitude
Rises 16:34:39 0° 17° (NNE) 2,317 4.9 -13.2°
Reaches altitude 10° 16:36:38 10° 22° (NNE) 1,466 3.8 -13.6°
Maximum altitude 16:39:43 54° 101° (E) 509 1.3 -14.3°
Drops below altitude 10° 16:42:50 10° 179° (S) 1,495 4.0 -15.0°
Sets 16:44:53 0° 184° (S) 2,368 5.1 -15.5°
